GW5498 Weather Reports


time (UTC)temp
C
wind
direction
speed
KPH
gust
KPH
rain 1hr
cm
rain 24hr
cm
rain mn
cm
humidity
%
barometer
mb
20260510234801 6 276 3.2 9.7 0.00 0.00 0.00 70 1012.3
20260510234300 6 251 3.2 8.0 0.00 0.00 0.00 70 1012.4
20260510233800 6 228 3.2 9.7 0.00 0.00 0.00 71 1012.5
20260510233259 6 259 3.2 9.7 0.00 0.00 0.00 70 1012.6
20260510232755 6 243 3.2 8.0 0.00 0.00 0.00 70 1012.7
20260510232255 6 0 3.2 9.7 0.00 0.00 0.00 70 1012.7
20260510231755 6 252 4.8 9.7 0.00 0.00 0.00 70 1012.8
20260510231255 6 233 4.8 9.7 0.00 0.00 0.00 70 1012.8
20260510230756 6 266 3.2 8.0 0.00 0.00 0.00 69 1012.9
20260510230255 6 188 3.2 9.7 0.00 0.00 0.00 68 1013.0
20260510225754 6 0 3.2 9.7 0.00 0.00 0.00 68 1013.0
20260510225253 6 242 3.2 9.7 0.00 0.00 0.00 67 1013.0
20260510224753 7 227 4.8 9.7 0.00 0.00 0.00 67 1013.1
20260510224250 7 265 4.8 9.7 0.00 0.00 0.00 66 1013.2
20260510223749 7 244 4.8 9.7 0.00 0.00 0.00 66 1013.3
20260510223248 7 183 3.2 8.0 0.00 0.00 0.00 67 1013.3
20260510222748 7 247 4.8 9.7 0.00 0.00 0.00 67 1013.5
20260510222248 7 266 3.2 9.7 0.00 0.00 0.00 67 1013.5
20260510221749 7 206 3.2 8.0 0.00 0.00 0.00 67 1013.6
20260510221248 7 227 3.2 8.0 0.00 0.00 0.00 66 1013.8
20260510220748 7 0 1.6 6.4 0.00 0.00 0.00 66 1013.8
20260510220248 7 223 3.2 8.0 0.00 0.00 0.00 66 1013.9
20260510215748 7 217 3.2 8.0 0.00 0.00 0.00 67 1014.0
20260510215244 7 251 3.2 8.0 0.00 0.00 0.00 67 1014.2
20260510214744 7 255 1.6 6.4 0.00 0.00 0.00 68 1014.2
20260510214244 7 254 0.0 4.8 0.00 0.00 0.00 68 1014.4
20260510213746 7 0 0.0 4.8 0.00 0.00 0.00 67 1014.4
20260510213241 7 262 0.0 4.8 0.00 0.00 0.00 66 1014.4
20260510212741 7 0 1.6 4.8 0.00 0.00 0.00 66 1014.4
20260510212241 7 0 1.6 4.8 0.00 0.00 0.00 65 1014.4
20260510211742 7 202 1.6 4.8 0.00 0.00 0.00 65 1014.4
20260510211243 7 225 1.6 4.8 0.00 0.00 0.00 65 1014.5
20260510210740 7 0 0.0 4.8 0.00 0.00 0.00 66 1014.5
20260510210238 7 0 0.0 4.8 0.00 0.00 0.00 66 1014.5
20260510205740 7 0 1.6 4.8 0.00 0.00 0.00 66 1014.5
20260510205236 7 198 0.0 4.8 0.00 0.00 0.00 66 1014.6
20260510204741 7 0 0.0 3.2 0.00 0.00 0.00 65 1014.6
20260510204237 7 0 0.0 4.8 0.00 0.00 0.00 65 1014.6
20260510203732 7 0 0.0 4.8 0.00 0.00 0.00 65 1014.6
20260510203234 7 0 0.0 4.8 0.00 0.00 0.00 65 1014.6
20260510202734 8 108 0.0 4.8 0.00 0.00 0.00 64 1014.7
20260510202234 8 0 0.0 4.8 0.00 0.00 0.00 64 1014.7
20260510201735 8 0 0.0 4.8 0.00 0.00 0.00 63 1014.7
20260510201234 8 0 0.0 4.8 0.00 0.00 0.00 63 1014.8
20260510200734 8 0 0.0 3.2 0.00 0.00 0.00 62 1014.8
20260510200235 8 140 0.0 3.2 0.00 0.00 0.00 62 1014.9
20260510195735 8 0 0.0 4.8 0.00 0.00 0.00 61 1014.9
20260510195235 8 0 0.0 4.8 0.00 0.00 0.00 61 1015.0
20260510194733 8 0 0.0 3.2 0.00 0.00 0.00 60 1015.0
20260510194233 9 0 0.0 4.8 0.00 0.00 0.00 59 1015.0
20260510193733 9 0 1.6 6.4 0.00 0.00 0.00 59 1015.0
20260510193232 9 122 1.6 6.4 0.00 0.00 0.00 58 1015.0
20260510192732 9 0 0.0 6.4 0.00 0.00 0.00 58 1014.9
20260510192233 9 99 1.6 6.4 0.00 0.00 0.00 58 1015.0
20260510191732 9 186 1.6 6.4 0.00 0.00 0.00 57 1015.1
20260510191233 10 114 1.6 6.4 0.00 0.00 0.00 57 1015.1
20260510190732 10 0 1.6 6.4 0.00 0.00 0.00 56 1015.2
20260510190233 10 98 1.6 6.4 0.00 0.00 0.00 56 1015.2
20260510185733 10 0 1.6 6.4 0.00 0.00 0.00 56 1015.2
20260510185230 10 0 1.6 4.8 0.00 0.00 0.00 55 1015.3
20260510184730 10 0 1.6 6.4 0.00 0.00 0.00 54 1015.3
20260510184229 10 133 1.6 6.4 0.00 0.00 0.00 54 1015.4
20260510183729 10 0 1.6 6.4 0.00 0.00 0.00 54 1015.4
20260510183225 11 119 1.6 6.4 0.00 0.00 0.00 54 1015.5
20260510182724 11 110 1.6 8.0 0.00 0.00 0.00 54 1015.5
20260510182225 11 74 1.6 8.0 0.00 0.00 0.00 53 1015.5
20260510181724 11 0 1.6 8.0 0.00 0.00 0.00 53 1015.5
20260510181225 11 0 1.6 8.0 0.00 0.00 0.00 52 1015.6
20260510180725 11 77 3.2 12.9 0.00 0.00 0.00 51 1015.6
20260510180227 11 33 3.2 12.9 0.00 0.00 0.00 51 1015.6
20260510175724 11 141 3.2 9.7 0.00 0.00 0.00 51 1015.8
20260510175222 12 0 1.6 9.7 0.00 0.00 0.00 50 1015.8
20260510174723 11 0 1.6 8.0 0.00 0.00 0.00 50 1015.9
20260510174223 11 0 1.6 9.7 0.00 0.00 0.00 51 1015.9
20260510173723 11 347 3.2 9.7 0.00 0.00 0.00 52 1015.9
20260510173220 11 198 1.6 9.7 0.00 0.00 0.00 52 1016.0
20260510164718 12 305 3.2 9.7 0.00 0.00 0.00 50 1016.4
20260510164216 12 33 3.2 9.7 0.00 0.00 0.00 49 1016.4
20260510163715 12 350 3.2 9.7 0.00 0.00 0.00 50 1016.5
20260510163215 11 50 3.2 9.7 0.00 0.00 0.00 50 1016.6
20260510162715 12 53 3.2 9.7 0.00 0.00 0.00 49 1016.7
20260510162217 12 134 3.2 12.9 0.00 0.00 0.00 50 1016.7
20260510161715 12 80 3.2 12.9 0.00 0.00 0.00 49 1016.9
20260510161213 13 23 3.2 11.3 0.00 0.00 0.00 48 1016.9
20260510160713 13 121 3.2 11.3 0.00 0.00 0.00 47 1016.9
20260510160213 13 8 3.2 11.3 0.00 0.00 0.00 47 1016.9
20260510155644 13 345 3.2 11.3 0.00 0.00 0.00 47 1017.0
20260510155144 12 224 3.2 12.9 0.00 0.00 0.00 48 1017.1
20260510154645 12 129 4.8 16.1 0.00 0.00 0.00 48 1017.2
20260510154143 12 25 4.8 16.1 0.00 0.00 0.00 49 1017.3
20260510153643 12 15 4.8 12.9 0.00 0.00 0.00 48 1017.2
20260510153145 12 54 4.8 14.5 0.00 0.00 0.00 47 1017.3
20260510152644 12 268 4.8 14.5 0.00 0.00 0.00 48 1017.4
20260510152144 12 11 4.8 14.5 0.00 0.00 0.00 47 1017.4
20260510151645 13 359 3.2 12.9 0.00 0.00 0.00 47 1017.4
20260510151145 12 60 3.2 11.3 0.00 0.00 0.00 46 1017.4
20260510150646 13 342 3.2 14.5 0.00 0.00 0.00 47 1017.5
20260510150144 13 0 4.8 14.5 0.00 0.00 0.00 46 1017.6
20260510145634 13 5 4.8 12.9 0.00 0.00 0.00 46 1017.6
20260510145133 13 305 4.8 19.3 0.00 0.00 0.00 47 1017.7
20260510144851 12 58 4.8 19.3 0.00 0.00 0.00 47 1017.8
20260510143904 13 19 4.8 17.7 0.00 0.00 0.00 47 1018.0
20260510143354 13 49 4.8 14.5 0.00 0.00 0.00 47 1018.0
20260510142406 13 359 4.8 14.5 0.00 0.00 0.00 46 1018.1
20260510141900 12 333 4.8 14.5 0.00 0.00 0.00 46 1018.2
20260510141359 12 7 4.8 14.5 0.00 0.00 0.00 48 1018.2
20260510140631 12 53 4.8 14.5 0.00 0.00 0.00 51 1018.2
20260510140129 12 355 6.4 14.5 0.00 0.00 0.00 50 1018.3
20260510135629 12 278 6.4 14.5 0.00 0.00 0.00 49 1018.3
20260510135128 12 293 4.8 14.5 0.00 0.00 0.00 48 1018.3
20260510134629 12 118 4.8 12.9 0.00 0.00 0.00 46 1018.3
20260510134127 12 336 4.8 12.9 0.00 0.00 0.00 50 1018.4
20260510133627 12 11 4.8 16.1 0.00 0.00 0.00 50 1018.5
20260510133128 13 329 4.8 16.1 0.00 0.00 0.00 48 1018.5
20260510132627 13 358 4.8 14.5 0.00 0.00 0.00 47 1018.5
20260510132127 13 79 4.8 12.9 0.00 0.00 0.00 47 1018.6
20260510131628 13 26 6.4 19.3 0.00 0.00 0.00 47 1018.6
20260510131126 12 325 6.4 19.3 0.00 0.00 0.00 48 1018.6
20260510130625 12 312 4.8 14.5 0.00 0.00 0.00 52 1018.7
20260510130126 12 27 6.4 14.5 0.00 0.00 0.00 50 1018.9
20260510125622 12 87 6.4 14.5 0.00 0.00 0.00 51 1018.9
20260510125122 12 341 6.4 12.9 0.00 0.00 0.00 49 1018.8
20260510124622 12 51 6.4 12.9 0.00 0.00 0.00 50 1019.0
20260510124121 12 350 4.8 12.9 0.00 0.00 0.00 49 1019.0
20260510123621 12 344 4.8 16.1 0.00 0.00 0.00 49 1019.1
20260510123121 12 135 4.8 16.1 0.00 0.00 0.00 49 1019.0
20260510122623 12 34 6.4 17.7 0.00 0.00 0.00 50 1019.1
20260510122122 12 8 6.4 17.7 0.00 0.00 0.00 50 1019.2
20260510121623 12 355 4.8 14.5 0.00 0.00 0.00 51 1019.2
20260510121121 12 10 4.8 14.5 0.00 0.00 0.00 50 1019.3
20260510120625 13 336 4.8 12.9 0.00 0.00 0.00 49 1019.3
20260510120115 12 347 4.8 11.3 0.00 0.00 0.00 50 1019.2
20260510115613 12 192 4.8 14.5 0.00 0.00 0.00 51 1019.3
20260510115113 11 42 4.8 14.5 0.00 0.00 0.00 55 1019.5
20260510114612 11 26 6.4 16.1 0.00 0.00 0.00 55 1019.5
20260510114113 11 338 6.4 17.7 0.00 0.00 0.00 55 1019.5
20260510113613 12 342 6.4 17.7 0.00 0.00 0.00 54 1019.6
20260510113114 12 19 6.4 14.5 0.00 0.00 0.00 53 1019.7
20260510112614 12 346 6.4 16.1 0.00 0.00 0.00 54 1019.7
20260510112113 12 105 6.4 16.1 0.00 0.00 0.00 54 1019.8
20260510111611 11 52 6.4 14.5 0.00 0.00 0.00 58 1019.8
20260510111112 11 21 6.4 12.9 0.00 0.00 0.00 58 1019.9
20260510110612 11 28 6.4 16.1 0.00 0.00 0.00 58 1020.0
20260510110108 11 25 4.8 16.1 0.00 0.00 0.00 58 1020.0
20260510105607 11 0 4.8 14.5 0.00 0.00 0.00 58 1020.1
20260510105108 11 31 6.4 17.7 0.00 0.00 0.00 58 1020.1
20260510104608 11 36 6.4 17.7 0.00 0.00 0.00 58 1020.2
20260510104108 11 307 4.8 14.5 0.00 0.00 0.00 57 1020.1
20260510103608 12 8 6.4 17.7 0.00 0.00 0.00 57 1020.2
20260510103108 11 11 6.4 17.7 0.00 0.00 0.00 55 1020.2
20260510102607 11 348 4.8 12.9 0.00 0.00 0.00 55 1020.3
20260510102102 11 303 4.8 12.9 0.00 0.00 0.00 58 1020.3
20260510101602 11 334 6.4 14.5 0.00 0.00 0.00 58 1020.4
20260510101103 11 348 6.4 14.5 0.00 0.00 0.00 58 1020.5
20260510100604 11 10 6.4 17.7 0.00 0.00 0.00 58 1020.5
20260510100326 10 282 6.4 17.7 0.00 0.00 0.00 60 1020.5
20260510095823 10 46 4.8 14.5 0.00 0.00 0.00 62 1020.6
20260510095327 10 21 6.4 14.5 0.00 0.00 0.00 62 1020.7
20260510094823 10 9 6.4 14.5 0.00 0.00 0.00 62 1020.8
20260510093824 10 358 6.4 14.5 0.00 0.00 0.00 63 1020.8
20260510093325 10 346 6.4 14.5 0.00 0.00 0.00 65 1020.7
20260510092827 10 51 6.4 14.5 0.00 0.00 0.00 65 1020.8
20260510092104 10 11 4.8 14.5 0.00 0.00 0.00 67 1020.8
20260510091602 9 82 6.4 16.1 0.00 0.00 0.00 70 1020.9
20260510091102 9 18 6.4 16.1 0.00 0.00 0.00 70 1020.9
20260510090602 10 50 4.8 14.5 0.00 0.00 0.00 70 1021.0
20260510085602 9 21 4.8 12.9 0.00 0.00 0.00 70 1021.0
20260510085102 9 300 4.8 16.1 0.00 0.00 0.00 72 1021.0
20260510084603 8 46 4.8 16.1 0.00 0.00 0.00 71 1021.1
20260510084102 8 13 3.2 14.5 0.00 0.00 0.00 71 1021.1
20260510083603 8 0 4.8 14.5 0.00 0.00 0.00 71 1021.1
20260510083102 8 15 4.8 14.5 0.00 0.00 0.00 72 1021.1
20260510082601 8 41 4.8 16.1 0.00 0.00 0.00 74 1021.1
20260510082101 8 350 6.4 20.9 0.00 0.00 0.00 74 1021.1
20260510081556 8 350 4.8 20.9 0.00 0.00 0.00 74 1021.1
20260510081056 8 40 4.8 12.9 0.00 0.00 0.00 74 1021.1
20260510080555 8 10 4.8 12.9 0.00 0.00 0.00 74 1021.1
20260510080056 8 60 4.8 12.9 0.00 0.00 0.00 75 1021.0
20260510075557 8 326 4.8 14.5 0.00 0.00 0.00 75 1021.0
20260510075057 8 335 6.4 14.5 0.00 0.00 0.00 76 1021.1
20260510074557 8 96 6.4 14.5 0.00 0.00 0.00 76 1021.0
20260510074058 8 29 4.8 19.3 0.00 0.00 0.00 76 1021.1
20260510073557 8 109 6.4 19.3 0.00 0.00 0.00 77 1021.0
20260510073054 8 67 6.4 16.1 0.00 0.00 0.00 76 1021.0
20260510072553 8 358 6.4 20.9 0.00 0.00 0.00 76 1021.0
20260510072053 8 315 6.4 20.9 0.00 0.00 0.00 76 1020.9
20260510071552 8 311 6.4 14.5 0.00 0.00 0.00 78 1020.9
20260510071052 8 354 6.4 14.5 0.00 0.00 0.00 78 1020.9
20260510070552 7 301 6.4 17.7 0.00 0.00 0.00 79 1020.8
20260510070047 7 309 6.4 17.7 0.00 0.00 0.00 80 1020.8
20260510065549 7 321 6.4 14.5 0.00 0.00 0.00 81 1020.7
20260510065049 7 1 4.8 12.9 0.00 0.00 0.00 82 1020.8
20260510064549 7 0 4.8 14.5 0.00 0.00 0.00 83 1020.8
20260510064048 7 25 4.8 14.5 0.00 0.00 0.00 83 1020.8
20260510063548 7 14 4.8 14.5 0.00 0.00 0.00 83 1020.9
20260510063048 7 0 4.8 14.5 0.00 0.00 0.00 83 1020.8
20260510062545 7 351 4.8 16.1 0.00 0.00 0.00 84 1020.7
20260510062044 6 53 4.8 16.1 0.00 0.00 0.00 85 1020.8
20260510061544 6 51 4.8 12.9 0.00 0.00 0.00 85 1020.8
20260510061043 6 7 4.8 12.9 0.00 0.00 0.00 86 1020.8
20260510060544 6 268 4.8 12.9 0.00 0.00 0.00 87 1020.8
20260510060310 6 26 4.8 16.1 0.00 0.00 0.00 87 1020.9
20260510055808 6 317 6.4 16.1 0.00 0.00 0.00 87 1020.8
20260510055309 6 337 4.8 12.9 0.00 0.00 0.00 88 1020.8
20260510052043 6 334 4.8 12.9 0.00 0.00 0.00 88 1020.8
20260510051539 6 340 4.8 14.5 0.00 0.00 0.00 88 1020.8
20260510051033 5 323 3.2 14.5 0.00 0.00 0.00 88 1020.8
20260510050530 5 1 4.8 9.7 0.00 0.00 0.00 88 1020.9
20260510050020 6 332 4.8 9.7 0.00 0.00 0.00 87 1021.0
20260510045521 6 349 4.8 12.9 0.00 0.00 0.00 87 1021.0
20260510045019 6 4 4.8 12.9 0.00 0.00 0.00 86 1021.0
20260510044519 6 324 4.8 12.9 0.00 0.00 0.00 86 1021.0
20260510044019 6 344 4.8 11.3 0.00 0.00 0.00 85 1020.9
20260510043519 6 318 4.8 11.3 0.00 0.00 0.00 84 1021.0
20260510043016 6 344 4.8 11.3 0.00 0.00 0.00 84 1020.9
20260510042515 7 341 4.8 11.3 0.00 0.00 0.00 84 1020.8
20260510042016 7 346 6.4 11.3 0.00 0.00 0.00 84 1020.8
20260510041516 7 39 6.4 11.3 0.00 0.00 0.00 84 1020.8
20260510041015 7 343 4.8 8.0 0.00 0.00 0.00 84 1020.8
20260510040515 7 68 4.8 12.9 0.00 0.00 0.00 84 1020.9
20260510040240 7 342 4.8 12.9 0.00 0.00 0.00 84 1021.0
20260510035736 7 355 6.4 12.9 0.00 0.00 0.00 84 1021.0
20260510035015 7 28 4.8 14.5 0.00 0.00 0.00 84 1021.0
20260510034516 7 52 4.8 14.5 0.00 0.00 0.00 84 1020.9
20260510034010 7 48 4.8 12.9 0.00 0.00 0.00 84 1021.0
20260510033510 7 346 6.4 14.5 0.00 0.00 0.00 84 1021.0
20260510033242 7 352 6.4 14.5 0.00 0.00 0.00 84 1020.9
20260510032731 7 1 4.8 14.5 0.00 0.00 0.00 84 1021.0
20260510032230 7 6 4.8 11.3 0.00 0.00 0.00 84 1021.1
20260510031505 7 350 4.8 11.3 0.00 0.00 0.00 85 1021.1
20260510031232 7 353 4.8 14.5 0.00 0.00 0.00 85 1021.1
20260510030504 7 33 4.8 14.5 0.00 0.00 0.00 85 1021.1
20260510025958 7 32 4.8 12.9 0.00 0.00 0.00 86 1021.2
20260510025458 7 359 6.4 12.9 0.00 0.00 0.00 86 1021.2
20260510024953 7 2 6.4 12.9 0.00 0.00 0.00 86 1021.1
20260510024452 7 0 4.8 12.9 0.00 0.00 0.00 86 1021.2
20260510023953 7 351 4.8 12.9 0.00 0.00 0.00 86 1021.3
20260510023453 7 352 4.8 12.9 0.00 0.00 0.00 86 1021.3
20260510023215 7 321 4.8 9.7 0.00 0.00 0.00 87 1021.2
20260510022450 7 328 4.8 11.3 0.00 0.00 0.00 87 1021.2
20260510021950 7 348 4.8 11.3 0.00 0.00 0.00 87 1021.2
20260510021450 7 355 4.8 11.3 0.00 0.00 0.00 87 1021.1
20260510020948 7 29 4.8 9.7 0.00 0.00 0.00 87 1021.0
20260510020449 7 4 4.8 9.7 0.00 0.00 0.00 87 1021.1
20260510015949 7 39 3.2 11.3 0.00 0.00 0.00 87 1021.1
20260510015448 7 358 4.8 11.3 0.00 0.00 0.00 87 1021.0
20260510014949 7 11 4.8 14.5 0.00 0.00 0.00 88 1021.0
20260510014442 7 31 4.8 14.5 0.00 0.00 0.00 88 1021.0
20260510013942 7 1 4.8 14.5 0.00 0.00 0.00 88 1021.1
20260510013438 7 357 4.8 14.5 0.00 0.00 0.00 88 1021.1
20260510012939 7 4 4.8 14.5 0.00 0.00 0.00 88 1021.1
20260510012439 7 323 3.2 9.7 0.00 0.00 0.00 88 1021.1
20260510011939 7 351 3.2 16.1 0.00 0.00 0.00 88 1021.1
20260510011439 7 20 4.8 16.1 0.00 0.00 0.00 88 1021.0
20260510010940 7 63 6.4 16.1 0.00 0.00 0.00 88 1021.0
20260510010440 7 42 6.4 16.1 0.00 0.00 0.00 88 1021.0
20260510010206 7 14 4.8 16.1 0.00 0.00 0.00 88 1021.0
20260510005435 7 32 4.8 14.5 0.00 0.00 0.00 88 1021.0
20260510004935 7 357 4.8 14.5 0.00 0.00 0.00 88 1021.0
20260510004435 7 343 4.8 16.1 0.00 0.00 0.00 88 1021.1
20260510004202 7 338 4.8 16.1 0.00 0.00 0.00 89 1021.1
20260510003435 7 6 4.8 12.9 0.00 0.00 0.00 89 1021.1
20260510003154 7 39 6.4 14.5 0.00 0.00 0.00 89 1021.1
20260510002431 7 354 6.4 20.9 0.00 0.00 0.00 89 1021.0
20260510001431 7 23 6.4 16.1 0.00 0.00 0.00 89 1021.1
20260510001153 7 355 6.4 16.1 0.00 0.00 0.00 89 1021.1
20260510000654 7 339 6.4 14.5 0.00 0.00 0.00 89 1021.2
20260509235930 7 4 6.4 19.3 0.00 0.00 0.00 90 1021.3
20260509235427 7 7 6.4 19.3 0.00 0.00 0.00 90 1021.3
20260509234929 7 15 4.8 16.1 0.00 0.00 0.00 90 1021.3